国际通讯卫星 903星 (INTELSAT 903 (IS-903))

导读

INTELSAT 903是国际通信卫星组织(ITSO)旗下的商用通信卫星,于2002年3月30日发射升空,属于国际通信卫星9系列卫星之一。该卫星主要承担跨区域语音、数据传输及广播电视信号转发服务,依托地球静止轨道覆盖,为全球通信网络提供稳定的中继支撑,是国际通信卫星系统中保障洲际互联互通的重要空间节点,延续了Intelsat系列商用通信服务的全球覆盖能力。

基本信息
目录编号:
27403
目录名称:
INTELSAT 903
国际标识:
2002-016A
轨道中心:
EARTH
卫星名称:
国际通讯卫星 903星
卫星全名:
国际通讯卫星 903星 (INTELSAT 903 (IS-903))
卫星状态:
在轨 (已飞行8931 天)
发射日期:
2002-03-30 UTC
国别 :
(ITSO)
星等 :
--
该卫星已列入 空间交会检测服务 Space Conjunction Data Service (SCDS) ,当前飞行风险评估等级: 无高风险
轨道信息
数据来源 国际轨道数据 AOE轨道数据
星历时间 2026-09-11T11:48:03+0800
9小时前
查看轨道信息
2026-09-06T16:00:00+0800
5天前
查看轨道信息
半长轴 42519.946km 42519.717km
偏心率 0.0006881 0.0006892
轨道倾角 7.924° 7.912°
近地点辐角 178.705° 177.011°
升交点赤经 65.625° 65.681°
平近点角 68.080° 149.729°
近地点 36112.551km 36112.275km
远地点 36171.067km 36170.885km
周期 1454.283分钟 1454.271分钟
每日圈数 0.990179 0.990187
详细信息
卫星平台:
SSL 1300HL
平衡模式:
三轴稳定
覆盖范围:
全球
运营商:
国际卫星通信公司
运营商所在国:
美国
制造商(研发单位):
劳拉空间系统公司
制造商所在国:
美国
使用方式:
暂无
卫星简介
从1965年4月至1984年3月,国际通信卫星组织发射了5代、6种不同性能的卫星共计35颗,除6颗卫星因运载火箭和远地点发动机故障而发射失败外,其余29颗卫星均被送到了预定的静止轨道位置。1984年8月前后,国际通信卫星组织利用部署在大西洋、太平洋、印度洋上空的15颗国际通信卫星,为遍布世界各地170多个国家或地区提供电话、电传、电报、电视和数据传输等电信业务;该卫星已退役。
2D轨道图
3D轨道图
轨道高度分析图
轨道倾角分析图
轨道综合分析图
查看轨道综合分析图
与全量物体交会距离演化趋势
与全量物体交会风险概率演化趋势